Regional Weather Roundup
Issued by NWS Midland/Odessa, TX

Home | Current Version | Previous Version | Text Only | Print | Product List | Glossary On
Versions: 1 2 3 4 5 6 7 8 9 10 11 12 13 14 15 16 17 18 19 20 21 22 23 24 25 26 27 28 29 30 31 32 33 34 35 36 37 38 39 40 41 42 43 44 45 46 47 48 49 50
000
ASUS44 KMAF 301710
RWRMAF
MIDLAND AREA WEATHER ROUNDUP
NATIONAL WEATHER SERVICE MIDLAND TX
1200 PM CDT TUE SEP 30 2014

...IN SOUTHWEST TEXAS AND SOUTHEAST NEW MEXICO...

CITY           SKY/WX    TMP DP  RH WIND       PRES   REMARKS
ALPINE         SUNNY     80  55  42 W5        30.07F
ANDREWS        FAIR      80  60  50 SW9       29.91F
ARTESIA        NOT AVBL
BIG SPRING     MOSUNNY   79  61  53 S16       29.92F
CARLSBAD       SUNNY     78  53  41 NE3       29.91F
DRYDEN           N/A     82  63  52 SE3       29.89F
FORT STOCKTON  MOSUNNY   86  57  37 W8        29.91F
GUAD PASS      MOSUNNY   70  53  54 SW16G26   30.07S
HOBBS          SUNNY     75  63  64 SW8       29.94F
MARFA          SUNNY     75  57  53 CALM      30.07F
MIDLAND AIRPK  SUNNY     81  61  50 SW10G16   29.90F
MIDLAND INTL   SUNNY     81  61  50 S13       29.90F
ODESSA         SUNNY     80  60  50 SW9       29.91F
PECOS          SUNNY     80  62  53 NW3       29.90S
PRESIDIO       FAIR      80  59  49 SE6       29.94F
SEMINOLE       SUNNY     78  60  52 SW8       29.92F
SNYDER         PTSUNNY   76  63  64 S16G23    29.91S
WINK           SUNNY     81  59  47 W8        29.89F
$$
...OTHER STATIONS IN TEXAS...

CITY           SKY/WX    TMP DP  RH WIND       PRES   REMARKS
ABILENE        SUNNY     85  61  44 S17G23    29.90F
AMARILLO       SUNNY     77  54  44 SW14      29.88F
AUSTIN         MOSUNNY   83  68  60 CALM      29.88F
BROWNSVILLE    PTSUNNY   84  77  79 CALM      29.84F
CORPUS CHRISTI PTSUNNY   82  75  79 NE8       29.85F
DALLAS FTW     PTSUNNY   84  67  56 S9        29.88F
DEL RIO        SUNNY     82  69  64 SE15      29.87F
EL PASO        SUNNY     79  51  37 W14       29.97S
HOUSTON INT    MOSUNNY   86  73  65 E6        29.88S
LUBBOCK        MOSUNNY   75  61  61 SW12      29.90F
SAN ANGELO     SUNNY     84  62  47 S14       29.90F
SAN ANTONIO    MOSUNNY   85  66  53 SE7       29.90F
WACO           SUNNY     86  68  54 S8        29.89F
WICHITA FALLS  NOT AVBL
$$
...OTHER LOCATIONS IN NEW MEXICO...

CITY           SKY/WX    TMP DP  RH WIND       PRES   REMARKS
ALAMAGORDO     SUNNY     75  48  38 SW7       29.98F
ALBUQUERQUE    SUNNY     61  34  36 W6        30.05F
CANNON AFB     SUNNY     73  39  29 W10       29.94F
CLOVIS           N/A     73  43  33 W12       29.96F
HOLLOMAN AFB   SUNNY     74  49  40 CALM      29.96F
ROSWELL        SUNNY     76  42  29 N8        29.93F
RUIDOSO        SUNNY     64  37  36 N3        30.11F
SANTA FE       SUNNY     62  30  29 VRB5      30.05F
TRUTH OR CONSE SUNNY     68  39  34 CALM      30.01F
TUCUMCARI      SUNNY     73  42  32 W14G25    29.89F
$$


USA.gov is the U.S. government's official web portal to all federal, state and local government web resources and services.